DELTA 1 DEB

Satellite information

Favourite Embed

Satellite Type and Status

DEBRISIN ORBIT

Key statistics

Satellite DELTA 1 DEB at a glance.

Uptime

18035

Days in orbit

Revolutions

≈ 13.0

Per day

Orbit

SSO

Sun Synchronous Orbit

Inclination

102.5

Latest

Satellite identification and parameters

Extended collection of information and parameters for DELTA 1 DEB.

Object identification

Identified? True

Debris? True

Object name: DELTA 1 DEB

International designator: 1976-077Q

Object number (NORAD): 10654

Object ID (CCSDS): 10654

Country: UNITED STATES OF AMERICA (US)

Current information (Y/N): Y

RCS size: SMALL

Orbital parameters

Period: 111.18 minutes

Inclination: 102.4853 deg

SMA: 7659.115 km

Apoapsis: 1424.895 km

Periapsis: 1137.065 km

RAAN: 272.806 deg

Eccentricy: 0.01879004

Argument of periapsis: 238.3489 deg

Mean anomaly: 189.1174 deg

Mean motion: 12.9519412 rev/day

Mean motion (dot): 0.0000029 rev/day2

B* drag term: 0.001138335 1/REarth

Two-line elements (TLE)

Creation date: Dec. 14, 2025, 3:07 a.m.

Reference frame: TEME

Reference center: EARTH

Epoch: Dec. 13, 2025, 5:01 p.m. UTC

TLE line 0: 0 DELTA 1 DEB

TLE line 1: 1 10654U 76077Q 25347.70938688 .00000290 00000-0 11383-2 0 9992

TLE line 2: 2 10654 102.4853 272.8060 0187900 238.3489 189.1174 12.95194120318948

Live tracking on map

Real-time ground track for satellite DELTA 1 DEB.

In-orbit conjunctions

A list of the most updated potential collisions computed for object DELTA 1 DEB.

Target Orbit TCA Probability of collision Miss distance Type
DELTA 1 DEB SSO 2025-01-12 14:23:15 0.0004711922 162.0 (m) DEBRIS
DELTA 1 DEB MEO 2024-10-09 17:36:43 0.000160355 87.0 (m) DEBRIS

Associated space launch

Meteorological satellite using radiometric imaging

DELTA 1 DEB was lifted into orbit during the mission ‘Delta 2310 | NOAA 5’, on board a Delta 2310 space rocket.

The launch took place on July 29, 1976, 5:07 p.m. from Space Launch Complex 2W.

For more information about the launch, click the button.

Launch to space Delta 2310 | NOAA 5
Delta 2310 | NOAA 5

Agency: N/A

Status: Launch Successful

Launch date: July 29, 1976, 5:07 p.m. UTC

Rocket: Delta 2310

Launch pad: Space Launch Complex 2W

Location: Vandenberg SFB, CA, USA

...

Latest news about this satellite

There are no fresh news available about this satellite. Check back as we update our databases every day.


Newsletter sign-up

Weekly statistics, charts and insights to help you stay on top of the space industry.